• In Hungary
  • List of Countries
  • For 7 days
  • Water Temperature
  • Satellite Maps
  • Weather Map
  • News
  • Weather Widgets
  • user-avatar
    Login

    Hourly Weather Pinsk

    Today, 18 October, Wednesday

    Time Temperature Precipitation Wind Pressure Humidity
    00:00 +13°C° 0 mm 3 mps 752 mmHg 89%
    01:00 +12°C° 0 mm 3 mps 752 mmHg 89%
    02:00 +12°C° 0 mm 3 mps 752 mmHg 88%
    03:00 +12°C° 0 mm 3 mps 751 mmHg 88%
    04:00 +12°C° 0 mm 3 mps 751 mmHg 88%
    05:00 +11°C° 0 mm 3 mps 751 mmHg 88%
    06:00 +12°C° 0 mm 3 mps 751 mmHg 86%
    07:00 +12°C° 0 mm 3 mps 750 mmHg 84%
    08:00 +12°C° 0 mm 4 mps 750 mmHg 82%
    09:00 +14°C° 0 mm 4 mps 750 mmHg 76%
    10:00 +17°C° 0 mm 4 mps 750 mmHg 70%
    11:00 +18°C° 0 mm 4 mps 750 mmHg 64%
    12:00 +19°C° 0 mm 4 mps 750 mmHg 62%
    13:00 +20°C° 0 mm 4 mps 749 mmHg 60%
    14:00 +21°C° 0 mm 4 mps 749 mmHg 57%
    15:00 +19°C° 0 mm 3 mps 749 mmHg 63%
    16:00 +18°C° 0 mm 3 mps 749 mmHg 69%
    17:00 +17°C° 0 mm 2 mps 749 mmHg 75%
    18:00 +16°C° 0 mm 2 mps 749 mmHg 78%
    19:00 +15°C° 0 mm 2 mps 749 mmHg 82%
    20:00 +14°C° 0 mm 2 mps 749 mmHg 86%
    21:00 +14°C° 0 mm 2 mps 749 mmHg 87%
    22:00 +14°C° 0 mm 2 mps 749 mmHg 89%
    23:00 +13°C° 0 mm 2 mps 749 mmHg 90%

    Tomorrow, 19 October, Thursday

    Time Temperature Precipitation Wind Pressure Humidity
    00:00 +13°C° 0 mm 1 mps 749 mmHg 91%
    01:00 +13°C° 0 mm 1 mps 749 mmHg 92%
    02:00 +12°C° 0 mm 1 mps 749 mmHg 92%
    03:00 +12°C° 0 mm 1 mps 749 mmHg 93%
    04:00 +12°C° 0 mm 1 mps 749 mmHg 93%
    05:00 +11°C° 0 mm 1 mps 749 mmHg 93%
    06:00 +11°C° 0 mm 1 mps 749 mmHg 92%
    07:00 +12°C° 0 mm 1 mps 749 mmHg 91%
    08:00 +12°C° 0 mm 1 mps 749 mmHg 91%
    09:00 +13°C° 0 mm 1 mps 749 mmHg 84%
    10:00 +15°C° 0 mm 1 mps 749 mmHg 77%
    11:00 +16°C° 0 mm 1 mps 749 mmHg 70%
    12:00 +18°C° 0 mm 1 mps 749 mmHg 68%
    13:00 +17°C° 0 mm 2 mps 749 mmHg 65%
    14:00 +18°C° 0 mm 2 mps 749 mmHg 62%
    15:00 +17°C° 0 mm 2 mps 749 mmHg 67%
    16:00 +15°C° 0 mm 2 mps 749 mmHg 71%
    17:00 +14°C° 0 mm 2 mps 749 mmHg 76%
    18:00 +13°C° 0 mm 2 mps 749 mmHg 79%
    19:00 +12°C° 0 mm 2 mps 750 mmHg 83%
    20:00 +12°C° 0 mm 2 mps 750 mmHg 86%
    21:00 +10°C° 0 mm 3 mps 751 mmHg 88%
    22:00 +10°C° 0 mm 3 mps 751 mmHg 89%
    23:00 +10°C° 0 mm 3 mps 751 mmHg 90%

    Day after tomorrow, 20 October, Friday

    Time Temperature Precipitation Wind Pressure Humidity
    00:00 +10°C° 0 mm 3 mps 751 mmHg 89%
    01:00 +9°C° 0 mm 3 mps 751 mmHg 89%
    02:00 +9°C° 0 mm 3 mps 752 mmHg 88%
    03:00 +9°C° 0 mm 3 mps 752 mmHg 86%
    04:00 +9°C° 0 mm 3 mps 752 mmHg 84%
    05:00 +8°C° 0 mm 3 mps 752 mmHg 82%
    06:00 +8°C° 0 mm 3 mps 752 mmHg 79%
    07:00 +8°C° 0 mm 3 mps 753 mmHg 76%
    08:00 +7°C° 0 mm 4 mps 753 mmHg 74%
    09:00 +8°C° 0 mm 4 mps 753 mmHg 70%
    10:00 +10°C° 0 mm 4 mps 754 mmHg 66%
    11:00 +11°C° 0 mm 4 mps 754 mmHg 62%
    12:00 +11°C° 0 mm 3 mps 754 mmHg 59%
    13:00 +12°C° 0 mm 3 mps 754 mmHg 57%
    14:00 +12°C° 0 mm 3 mps 754 mmHg 54%
    15:00 +11°C° 0 mm 3 mps 754 mmHg 57%
    16:00 +10°C° 0 mm 3 mps 754 mmHg 60%
    17:00 +10°C° 0 mm 2 mps 754 mmHg 63%
    18:00 +9°C° 0 mm 3 mps 754 mmHg 65%
    19:00 +8°C° 0 mm 3 mps 755 mmHg 68%
    20:00 +7°C° 0 mm 3 mps 755 mmHg 70%
    21:00 +7°C° 0 mm 3 mps 755 mmHg 72%
    22:00 +5°C° 0 mm 3 mps 755 mmHg 74%
    23:00 +5°C° 0 mm 3 mps 756 mmHg 76%

    21 October, Saturday

    Time Temperature Precipitation Wind Pressure Humidity
    00:00 +5°C° 0 mm 2 mps 756 mmHg 78%
    01:00 +5°C° 0 mm 2 mps 756 mmHg 79%
    02:00 +5°C° 0 mm 2 mps 756 mmHg 81%
    03:00 +4°C° 0 mm 2 mps 756 mmHg 83%
    04:00 +4°C° 0 mm 2 mps 755 mmHg 84%
    05:00 +3°C° 0 mm 3 mps 755 mmHg 85%
    06:00 +3°C° 0 mm 3 mps 756 mmHg 84%
    07:00 +3°C° 0 mm 3 mps 756 mmHg 83%
    08:00 +4°C° 0 mm 3 mps 756 mmHg 82%
    09:00 +5°C° 0 mm 3 mps 756 mmHg 76%
    10:00 +7°C° 0 mm 3 mps 756 mmHg 71%
    11:00 +9°C° 0 mm 3 mps 756 mmHg 66%
    12:00 +9°C° 0 mm 3 mps 756 mmHg 63%
    13:00 +10°C° 0 mm 3 mps 756 mmHg 60%
    14:00 +10°C° 0 mm 3 mps 756 mmHg 57%
    15:00 +9°C° 0 mm 3 mps 755 mmHg 61%
    16:00 +9°C° 0 mm 3 mps 755 mmHg 65%
    17:00 +8°C° 0 mm 2 mps 755 mmHg 69%
    18:00 +7°C° 0 mm 2 mps 756 mmHg 72%
    19:00 +5°C° 0 mm 3 mps 756 mmHg 75%
    20:00 +4°C° 0 mm 3 mps 756 mmHg 79%
    21:00 +4°C° 0 mm 3 mps 756 mmHg 79%
    22:00 +4°C° 0 mm 3 mps 756 mmHg 80%
    23:00 +3°C° 0 mm 3 mps 756 mmHg 81%

    22 October, Sunday

    Time Temperature Precipitation Wind Pressure Humidity
    00:00 +3°C° 0 mm 3 mps 756 mmHg 82%
    01:00 +3°C° 0 mm 3 mps 756 mmHg 82%
    02:00 +2°C° 0 mm 3 mps 756 mmHg 83%
    03:00 +2°C° 0 mm 3 mps 756 mmHg 84%
    04:00 +2°C° 0 mm 3 mps 756 mmHg 85%
    05:00 +2°C° 0 mm 3 mps 755 mmHg 86%
    06:00 +2°C° 0 mm 3 mps 755 mmHg 85%
    07:00 +2°C° 0 mm 3 mps 755 mmHg 84%
    08:00 +2°C° 0 mm 3 mps 755 mmHg 83%
    09:00 +4°C° 0 mm 4 mps 755 mmHg 76%
    10:00 +6°C° 0 mm 4 mps 755 mmHg 70%
    11:00 +7°C° 0 mm 4 mps 755 mmHg 64%
    12:00 +8°C° 0 mm 4 mps 754 mmHg 61%
    13:00 +10°C° 0 mm 4 mps 754 mmHg 58%
    14:00 +11°C° 0 mm 4 mps 753 mmHg 56%
    15:00 +11°C° 0 mm 4 mps 753 mmHg 59%
    16:00 +10°C° 0 mm 3 mps 753 mmHg 63%
    17:00 +9°C° 0 mm 3 mps 752 mmHg 67%
    18:00 +8°C° 0 mm 3 mps 752 mmHg 68%
    19:00 +8°C° 0 mm 3 mps 752 mmHg 69%
    20:00 +6°C° 0 mm 4 mps 752 mmHg 70%
    21:00 +7°C° 0 mm 4 mps 752 mmHg 69%
    22:00 +8°C° 0 mm 3 mps 751 mmHg 69%
    23:00 +8°C° 0 mm 3 mps 751 mmHg 68%

    23 October, Monday

    Time Temperature Precipitation Wind Pressure Humidity
    00:00 +8°C° 0 mm 3 mps 751 mmHg 69%
    01:00 +8°C° 0 mm 3 mps 751 mmHg 69%
    02:00 +8°C° 0 mm 3 mps 750 mmHg 69%
    03:00 +8°C° 0 mm 3 mps 750 mmHg 70%
    04:00 +8°C° 0 mm 3 mps 749 mmHg 72%
    05:00 +8°C° 0 mm 3 mps 749 mmHg 73%
    06:00 +8°C° 0.1 mm 3 mps 749 mmHg 76%
    07:00 +8°C° 0.1 mm 3 mps 748 mmHg 79%
    08:00 +7°C° 0.1 mm 4 mps 748 mmHg 81%
    09:00 +7°C° 0.7 mm 4 mps 748 mmHg 84%
    10:00 +8°C° 0.7 mm 4 mps 748 mmHg 87%
    11:00 +8°C° 0.7 mm 4 mps 748 mmHg 89%
    12:00 +8°C° 0.9 mm 5 mps 747 mmHg 89%
    13:00 +8°C° 0.9 mm 5 mps 747 mmHg 88%
    14:00 +8°C° 0.9 mm 6 mps 747 mmHg 87%
    15:00 +8°C° 0.3 mm 6 mps 747 mmHg 86%
    16:00 +8°C° 0.3 mm 5 mps 748 mmHg 86%
    17:00 +8°C° 0.3 mm 5 mps 748 mmHg 85%
    18:00 +8°C° 0 mm 5 mps 748 mmHg 86%
    19:00 +7°C° 0 mm 5 mps 748 mmHg 87%
    20:00 +7°C° 0 mm 5 mps 749 mmHg 88%
    21:00 +6°C° 0 mm 5 mps 749 mmHg 88%
    22:00 +6°C° 0 mm 5 mps 749 mmHg 88%
    23:00 +5°C° 0 mm 5 mps 749 mmHg 88%
    Show more